Notices

What's New in latest Release from April 7th, 2021:

- Updated Glossary, including Speed of Maximum Gust, and Total Hourly Precipitation

- Updated national and regional climate services offices contacts and prices information

- Addition of station inventory lists for 1981-2010, 1971-2000, and 1961-1990 Normals.

Please note that as of June 10, 2021 UTC dates are available for all years 2004-present, and DBA is working on populating the remaining years (2003 to 1953).

If you haven't already, please take our survey and provide feedback about our website: https://eccc.sondage-survey.ca/f/LanguageSelection.aspx?s=442ca660-fcf1-47c0-95a9-59707d6fd709

Hourly Data Report for December 11, 2020

CARBERRY CS
MANITOBA
Current Station Operator: ECCC - MSC

49°54'20.900" N
99°21'26.800" W
383.50 m
5010547
71170
WZE

Download Data

Hourly Data (December 2020)
Hourly Data Report for December 11, 2020
TIME
LST
Temp Definition
°C
Dew Point Definition
°C
Rel Hum Definition
%
Precip. Amount Definition
mm

Wind Dir Definition
10's deg

Wind Spd Definition
km/h
Visibility Definition
km
Stn Press Definition
kPa
Hmdx Definition


Wind Chill Definition


Weather Definition


00:00 -3.2 -4.3 92 0.0 26 8   97.60   -6 LegendNANA
01:00 -3.3 -4.4 92 0.0 24 7   97.61   -6 LegendNANA
02:00 -3.6 -4.9 91 0.0 19 6   97.55   -6 LegendNANA
03:00 -4.0 -4.8 94 0.0 15 8   97.56   -7 LegendNANA
04:00 -4.2 -4.4 99 0.0 22 8   97.60   -8 LegendNANA
05:00 -4.7 -4.7 100 0.0 19 8   97.61   -8 LegendNANA
06:00 -5.0 -5.1 100 0.0 20 11   97.61   -10 LegendNANA
07:00 -5.1 -5.1 100 0.0 18 11   97.62   -10 LegendNANA
08:00 -5.1 -5.1 100 0.0 22 7   97.58   -8 LegendNANA
09:00 -5.0 -5.0 100 0.0 20 9   97.59   -9 LegendNANA
10:00 -5.2 -5.2 100 0.0 19 10   97.60   -10 LegendNANA
11:00 -5.3 -5.3 100 0.0 21 11   97.62   -10 LegendNANA
12:00 -5.1 -5.2 100 0.0 24 6   97.57   -8 LegendNANA
13:00 -4.9 -4.9 100 0.0 17 11   97.50   -9 LegendNANA
14:00 -4.8 -4.8 100 0.0 18 8   97.51   -8 LegendNANA
15:00 -4.8 -4.8 100 0.0 20 8   97.52   -8 LegendNANA
16:00 -4.8 -4.8 100 0.0 20 9   97.56   -9 LegendNANA
17:00 -5.5 -5.5 100 0.0 28 14   97.59   -11 LegendNANA
18:00 -6.0 -6.2 99 0.0 27 12   97.63   -11 LegendNANA
19:00 -5.8 -5.8 100 0.0 27 10   97.63   -10 LegendNANA
20:00 -5.4 -5.4 100 0.0 28 10   97.68   -10 LegendNANA
21:00 -5.0 -5.1 100 0.0 27 5   97.70   -7 LegendNANA
22:00 -4.8 -4.8 100 0.0 31 4   97.73   -7 LegendNANA
23:00 -4.3 -4.4 100 0.0 1 8   97.74   -8 LegendNANA

Notes on Data Quality.

Legend

  • E = Estimated
  • M = Missing
  • NA = Not Available*
  • [empty] = Indicates an unobserved value
Date modified: